Hourly Weather Alliste

Today, 9 March, Tuesday

Time Temperature Precipitation Wind Pressure Humidity
00:00 +9°C° 0 mm 2 mps 759 mmHg 85%
01:00 +9°C° 0 mm 2 mps 759 mmHg 86%
02:00 +9°C° 0 mm 2 mps 758 mmHg 86%
03:00 +9°C° 0 mm 2 mps 758 mmHg 86%
04:00 +8°C° 0 mm 2 mps 758 mmHg 86%
05:00 +9°C° 0 mm 2 mps 758 mmHg 85%
06:00 +9°C° 0 mm 2 mps 758 mmHg 84%
07:00 +10°C° 0 mm 2 mps 758 mmHg 83%
08:00 +13°C° 0 mm 2 mps 758 mmHg 75%
09:00 +14°C° 0 mm 2 mps 758 mmHg 67%
10:00 +16°C° 0 mm 3 mps 758 mmHg 59%
11:00 +17°C° 0 mm 3 mps 758 mmHg 59%
12:00 +17°C° 0 mm 4 mps 758 mmHg 59%
13:00 +17°C° 0 mm 5 mps 757 mmHg 60%
14:00 +16°C° 0 mm 6 mps 757 mmHg 62%
15:00 +16°C° 0 mm 6 mps 757 mmHg 64%
16:00 +15°C° 0 mm 6 mps 756 mmHg 66%
17:00 +14°C° 0 mm 6 mps 756 mmHg 71%
18:00 +13°C° 0 mm 6 mps 756 mmHg 76%
19:00 +11°C° 0 mm 7 mps 756 mmHg 81%
20:00 +11°C° 0 mm 7 mps 756 mmHg 82%
21:00 +11°C° 0 mm 7 mps 757 mmHg 83%
22:00 +11°C° 0 mm 7 mps 757 mmHg 84%
23:00 +11°C° 0 mm 7 mps 757 mmHg 85%

Tomorrow, 10 March, Wednesday

Time Temperature Precipitation Wind Pressure Humidity
00:00 +11°C° 0 mm 7 mps 757 mmHg 86%
01:00 +11°C° 0 mm 7 mps 756 mmHg 87%
02:00 +11°C° 0.3 mm 6 mps 756 mmHg 88%
03:00 +12°C° 0.3 mm 5 mps 756 mmHg 90%
04:00 +12°C° 0.3 mm 4 mps 755 mmHg 91%
05:00 +12°C° 0.2 mm 3 mps 756 mmHg 89%
06:00 +12°C° 0.2 mm 3 mps 756 mmHg 88%
07:00 +13°C° 0.2 mm 2 mps 756 mmHg 87%
08:00 +14°C° 0.4 mm 2 mps 756 mmHg 84%
09:00 +13°C° 0.4 mm 3 mps 757 mmHg 81%
10:00 +14°C° 0.4 mm 3 mps 757 mmHg 79%
11:00 +14°C° 0.3 mm 5 mps 757 mmHg 77%
12:00 +14°C° 0.3 mm 6 mps 757 mmHg 76%
13:00 +14°C° 0.3 mm 7 mps 757 mmHg 75%
14:00 +12°C° 0 mm 7 mps 757 mmHg 73%
15:00 +12°C° 0 mm 7 mps 757 mmHg 72%
16:00 +11°C° 0 mm 6 mps 757 mmHg 71%
17:00 +11°C° 0.3 mm 7 mps 758 mmHg 74%
18:00 +10°C° 0.3 mm 7 mps 758 mmHg 76%
19:00 +9°C° 0.3 mm 7 mps 758 mmHg 78%
20:00 +9°C° 0.1 mm 7 mps 759 mmHg 76%
21:00 +8°C° 0.1 mm 7 mps 759 mmHg 73%
22:00 +8°C° 0.1 mm 7 mps 760 mmHg 71%
23:00 +7°C° 0 mm 8 mps 760 mmHg 72%

Day after tomorrow, 11 March, Thursday

Time Temperature Precipitation Wind Pressure Humidity
00:00 +6°C° 0 mm 8 mps 759 mmHg 73%
01:00 +6°C° 0 mm 9 mps 759 mmHg 74%
02:00 +6°C° 0 mm 10 mps 759 mmHg 74%
03:00 +6°C° 0 mm 11 mps 759 mmHg 74%
04:00 +6°C° 0 mm 11 mps 759 mmHg 73%
05:00 +6°C° 0 mm 11 mps 759 mmHg 75%
06:00 +6°C° 0 mm 11 mps 760 mmHg 76%
07:00 +6°C° 0 mm 10 mps 760 mmHg 77%
08:00 +7°C° 0 mm 10 mps 761 mmHg 70%
09:00 +8°C° 0 mm 10 mps 762 mmHg 62%
10:00 +9°C° 0 mm 10 mps 762 mmHg 55%
11:00 +11°C° 0 mm 10 mps 763 mmHg 51%
12:00 +11°C° 0 mm 10 mps 763 mmHg 48%
13:00 +12°C° 0 mm 10 mps 763 mmHg 44%
14:00 +11°C° 0 mm 10 mps 763 mmHg 47%
15:00 +11°C° 0 mm 9 mps 763 mmHg 51%
16:00 +10°C° 0 mm 9 mps 763 mmHg 54%
17:00 +9°C° 0 mm 8 mps 764 mmHg 57%
18:00 +8°C° 0 mm 7 mps 764 mmHg 60%
19:00 +7°C° 0 mm 6 mps 765 mmHg 63%
20:00 +7°C° 0 mm 6 mps 765 mmHg 63%
21:00 +6°C° 0 mm 5 mps 765 mmHg 63%
22:00 +6°C° 0 mm 4 mps 765 mmHg 63%
23:00 +7°C° 0 mm 3 mps 765 mmHg 63%

12 March, Friday

Time Temperature Precipitation Wind Pressure Humidity
00:00 +6°C° 0 mm 2 mps 765 mmHg 64%
01:00 +6°C° 0 mm 2 mps 765 mmHg 64%
02:00 +7°C° 0 mm 1 mps 765 mmHg 64%
03:00 +6°C° 0 mm 1 mps 765 mmHg 63%
04:00 +6°C° 0 mm 1 mps 765 mmHg 63%
05:00 +7°C° 0 mm 1 mps 765 mmHg 62%
06:00 +7°C° 0 mm 2 mps 765 mmHg 62%
07:00 +8°C° 0 mm 2 mps 765 mmHg 61%
08:00 +10°C° 0 mm 3 mps 765 mmHg 57%
09:00 +12°C° 0 mm 3 mps 765 mmHg 53%
10:00 +14°C° 0 mm 3 mps 765 mmHg 48%
11:00 +14°C° 0 mm 4 mps 765 mmHg 50%
12:00 +15°C° 0 mm 5 mps 765 mmHg 52%
13:00 +15°C° 0 mm 6 mps 765 mmHg 54%
14:00 +15°C° 0 mm 6 mps 765 mmHg 58%
15:00 +14°C° 0 mm 6 mps 764 mmHg 61%
16:00 +14°C° 0 mm 6 mps 764 mmHg 64%
17:00 +13°C° 0 mm 6 mps 763 mmHg 69%
18:00 +12°C° 0 mm 5 mps 763 mmHg 74%
19:00 +10°C° 0 mm 5 mps 763 mmHg 79%
20:00 +9°C° 0 mm 5 mps 763 mmHg 81%
21:00 +9°C° 0 mm 5 mps 763 mmHg 83%
22:00 +9°C° 0 mm 5 mps 763 mmHg 85%
23:00 +9°C° 0 mm 5 mps 763 mmHg 87%

13 March, Saturday

Time Temperature Precipitation Wind Pressure Humidity
00:00 +9°C° 0 mm 5 mps 762 mmHg 89%
01:00 +9°C° 0 mm 5 mps 762 mmHg 90%
02:00 +9°C° 0 mm 5 mps 762 mmHg 91%
03:00 +9°C° 0 mm 5 mps 761 mmHg 91%
04:00 +9°C° 0 mm 5 mps 761 mmHg 92%
05:00 +10°C° 0 mm 4 mps 761 mmHg 90%
06:00 +11°C° 0 mm 4 mps 761 mmHg 88%
07:00 +11°C° 0 mm 3 mps 761 mmHg 86%
08:00 +12°C° 0 mm 3 mps 762 mmHg 79%
09:00 +14°C° 0 mm 4 mps 762 mmHg 72%
10:00 +17°C° 0 mm 4 mps 762 mmHg 65%
11:00 +17°C° 0 mm 3 mps 762 mmHg 62%
12:00 +18°C° 0 mm 3 mps 762 mmHg 60%
13:00 +18°C° 0 mm 2 mps 762 mmHg 58%
14:00 +17°C° 0 mm 3 mps 761 mmHg 62%
15:00 +17°C° 0 mm 3 mps 761 mmHg 67%
16:00 +16°C° 0 mm 3 mps 761 mmHg 71%
17:00 +14°C° 0 mm 3 mps 761 mmHg 77%
18:00 +13°C° 0 mm 3 mps 760 mmHg 83%
19:00 +12°C° 0 mm 3 mps 760 mmHg 88%
20:00 +12°C° 0 mm 3 mps 760 mmHg 89%
21:00 +12°C° 0 mm 3 mps 760 mmHg 90%
22:00 +13°C° 0 mm 2 mps 760 mmHg 91%
23:00 +13°C° 0 mm 2 mps 760 mmHg 89%

14 March, Sunday

Time Temperature Precipitation Wind Pressure Humidity
00:00 +13°C° 0 mm 2 mps 760 mmHg 87%
01:00 +13°C° 0 mm 2 mps 759 mmHg 85%
02:00 +12°C° 0 mm 3 mps 759 mmHg 83%
03:00 +12°C° 0 mm 4 mps 759 mmHg 81%
04:00 +12°C° 0 mm 5 mps 758 mmHg 78%
05:00 +11°C° 0.1 mm 6 mps 758 mmHg 78%
06:00 +11°C° 0.1 mm 6 mps 758 mmHg 78%
07:00 +11°C° 0.1 mm 7 mps 757 mmHg 78%
08:00 +11°C° 0.3 mm 7 mps 758 mmHg 76%
09:00 +11°C° 0.3 mm 6 mps 758 mmHg 74%
10:00 +13°C° 0.3 mm 6 mps 758 mmHg 72%
11:00 +12°C° 0.1 mm 7 mps 757 mmHg 71%
12:00 +14°C° 0.1 mm 7 mps 757 mmHg 70%
13:00 +14°C° 0.1 mm 7 mps 757 mmHg 69%
14:00 +14°C° 0 mm 6 mps 756 mmHg 69%
15:00 +14°C° 0 mm 6 mps 756 mmHg 68%
16:00 +15°C° 0 mm 5 mps 755 mmHg 67%
17:00 +13°C° 0 mm 5 mps 755 mmHg 72%
18:00 +12°C° 0 mm 5 mps 755 mmHg 76%
19:00 +11°C° 0 mm 4 mps 755 mmHg 81%
20:00 +10°C° 0 mm 5 mps 755 mmHg 79%
21:00 +10°C° 0 mm 5 mps 755 mmHg 78%
22:00 +10°C° 0 mm 5 mps 754 mmHg 76%
23:00 +12°C° 0.2 mm 5 mps 754 mmHg 76%
Show more